Dewpoint
4 4 5 5 4 4 3 2 2 2 3 3 2 2 -0 -1 -1 -2 -3 -3 -3 -2 -1 -2 -5 -4 -4 -4 -4 -2 -2 -2 -2 -2 -3 -5 -6 -7 -4 -3 -3 -4 -2 -2 -2 -1 -7 -7 -6 -10 -10 -6 -6 -6
3 4 4 5 5 4 3 3 2 2 2 3 3 2 2 -0 -1 -2 -3 -2 -2 -3 -1 -2 -4 -4 -4 -4 -4 -1 -4 -2 -4 -3 -3 -5 -5 -6 -8 -6 -4 -3 -5 -3 -5 -5 -7 -7 -8 -8 -7 -6 -6 -7
0 3 4 4 4 5 4 4 2 2 2 2 3 3 3 2 -0 -0 -1 -2 -2 -2 -1 -1 -2 -3 -4 -4 -4 -3 -3 -3 -3 -3 -4 -4 -5 -5 -5 -5 -6 -6 -5 -4 -5 -6 -5 -6 -6 -7 -7 -7 -7 -8
-6 -1 3 3 4 4 4 4 3 2 2 2 2 2 3 3 1 0 -1 -1 -2 -3 -2 -1 -1 -2 -3 -3 -3 -4 -2 -3 -3 -4 -3 -3 -4 -5 -5 -6 -6 -8 -6 -5 -5 -6 -5 -5 -6 -6 -7 -8 -10 -10
-7 -7 -2 2 3 4 4 4 4 3 3 2 2 2 2 3 2 0 -0 -0 -1 -2 -1 0 -1 -2 -2 -2 -2 -3 -3 -4 -4 -3 -2 -2 -2 -3 -4 -4 -4 -6 -6 -6 -6 -7 -6 -7 -6 -6 -8 -9 -10 -9
-4 -6 -8 -3 1 3 3 4 4 4 3 3 2 2 2 2 3 0 -1 -1 -2 -2 -2 -2 -1 -2 -2 -2 -2 -2 -2 -2 -2 -2 -1 -1 -1 -2 -2 -2 -4 -5 -7 -8 -7 -7 -6 -6 -6 -5 -7 -9 -9 -8
-3 -4 -5 -8 -7 -0 3 3 4 4 4 3 2 2 3 2 3 1 -0 -2 -3 -2 -3 -2 -0 -2 -2 -2 -1 -1 -1 -1 -1 -1 -1 -1 -1 -1 -2 -1 -4 -4 -4 -7 -7 -6 -5 -6 -6 -6 -9 -8 -8 -9
-3 -3 -5 -6 -9 -6 -2 2 3 4 4 3 2 2 4 3 3 2 1 -1 -1 -2 -3 -4 -2 -2 -2 -2 -2 -1 -1 -1 -1 -1 -0 -1 -1 -1 -0 -3 -3 -4 -5 -5 -6 -6 -7 -6 -7 -7 -8 -8 -10 -10
-10 -4 -4 -5 -6 -9 -6 -3 2 3 4 3 3 3 3 3 2 2 1 -0 -0 -1 -2 -2 -3 -2 -2 -1 -1 -1 -1 -2 -1 -2 -2 -1 -2 0 -1 -2 -3 -3 -4 -4 -5 -5 -6 -7 -7 -7 -9 -10 -12 -16
-15 -12 -5 -4 -5 -7 -9 -6 -3 1 3 3 2 3 2 2 2 1 1 0 -0 -1 -1 -1 -3 -2 -2 -1 -1 -2 -1 -2 -4 -2 -1 -1 -1 -2 -2 -2 -2 -2 -4 -3 -5 -6 -6 -7 -8 -9 -12 -16 -18 -19
-11 -13 -9 -5 -4 -6 -8 -9 -6 -2 1 3 2 1 1 1 1 1 0 -0 -1 -1 -1 -2 -2 -2 -2 -1 -1 -2 -3 -3 -3 -4 -1 -1 -1 -3 -3 -3 -3 -2 -2 -3 -5 -6 -7 -9 -12 -15 -17 -18 -17 -17
-5 -4 -10 -5 -4 -3 -6 -7 -6 -2 1 1 1 0 -0 0 0 0 0 -1 -1 -2 -2 -2 -1 -2 -2 -1 -2 -2 -2 -2 -1 -2 -1 -1 -3 -3 -3 -3 -4 -3 -3 -6 -8 -8 -11 -15 -16 -16 -16 -17 -18 -18
-5 -4 -6 -4 -3 -3 -3 -4 -3 -1 -0 -0 0 -0 -0 -1 -0 0 -0 -0 -2 -3 -2 -2 -2 -3 -3 -2 -3 -3 -1 -1 -3 -1 -2 -3 -4 -4 -4 -5 -5 -6 -7 -10 -12 -15 -16 -16 -16 -18 -18 -19 -20 -21
-4 -5 -7 -5 -3 -3 -3 -3 -2 -2 -0 0 -1 -1 -1 -1 -1 -3 -3 -2 -3 -2 -2 -2 -3 -3 -2 -3 -3 -3 -3 -3 -2 -1 -3 -6 -5 -4 -5 -7 -7 -9 -13 -15 -15 -16 -17 -19 -21 -21 -22 -23 -23 -23
-6 -5 -5 -5 -4 -4 -3 -3 -3 -1 -0 -0 -1 -0 -1 -2 -3 -3 -3 -3 -3 -2 -2 -3 -3 -3 -3 -3 -3 -3 -2 -1 -2 -3 -4 -4 -5 -5 -7 -8 -13 -15 -15 -16 -17 -19 -21 -23 -24 -25 -25 -25 -24 -22
-5 -4 -4 -5 -4 -4 -3 -3 -3 -2 -2 -1 -2 -1 -1 -3 -3 -3 -3 -2 -2 -2 -3 -3 -2 -3 -3 -4 -1 -2 -4 -5 -5 -6 -5 -4 -6 -6 -7 -12 -13 -14 -16 -16 -19 -22 -24 -25 -24 -24 -24 -24 -22 -22
-4 -3 -4 -4 -4 -4 -4 -3 -3 -3 -3 -1 -2 -1 -1 -2 -2 -2 -2 -2 -2 -3 -3 -4 -3 -3 -4 -4 -3 -5 -5 -5 -6 -6 -4 -4 -6 -6 -10 -12 -14 -15 -17 -22 -25 -25 -26 -25 -24 -23 -23 -25 -23 -23
-4 -3 -4 -4 -5 -4 -4 -4 -3 -3 -2 -3 -3 -4 -2 -1 -2 -2 -2 -2 -3 -3 -3 -4 -3 -2 -2 -2 -4 -5 -4 -5 -5 -6 -5 -5 -7 -9 -11 -12 -13 -20 -26 -26 -27 -27 -27 -24 -23 -24 -24 -24 -21 -22
-3 -3 -4 -5 -5 -5 -3 -3 -3 -3 -3 -4 -4 -3 -2 -2 -2 -2 -2 -3 -3 -3 -3 -3 -3 -4 -4 -5 -5 -5 -4 -5 -5 -6 -5 -6 -7 -9 -10 -13 -24 -27 -28 -27 -26 -25 -24 -23 -23 -22 -21 -20 -19 -18
-5 -5 -6 -4 -4 -5 -4 -3 -3 -3 -5 -4 -4 -3 -3 -3 -2 -2 -3 -2 -3 -2 -2 -3 -4 -4 -4 -4 -5 -6 -5 -5 -8 -6 -5 -6 -8 -9 -16 -27 -27 -25 -25 -25 -25 -23 -22 -21 -23 -21 -20 -18 -16 -15
-5 -5 -4 -4 -4 -4 -4 -5 -4 -3 -4 -4 -3 -3 -3 -3 -2 -2 -2 -2 -1 -1 -2 -1 -2 -4 -5 -5 -6 -6 -6 -9 -15 -21 -11 -7 -8 -20 -25 -24 -24 -23 -22 -22 -22 -24 -20 -19 -18 -19 -18 -17 -15 -13
-5 -5 -5 -5 -5 -6 -5 -5 -5 -5 -5 -5 -4 -4 -4 -4 -4 -2 -2 -2 -2 -1 -2 -3 -3 -6 -6 -8 -8 -6 -8 -12 -16 -17 -18 -22 -24 -25 -25 -25 -23 -21 -20 -20 -21 -18 -17 -17 -18 -17 -16 -16 -14 -13
-5 -5 -5 -5 -6 -6 -6 -6 -6 -5 -6 -6 -6 -7 -7 -7 -5 -4 -3 -2 -2 -2 -2 -4 -5 -10 -9 -9 -11 -14 -10 -13 -12 -20 -26 -25 -24 -23 -23 -23 -21 -19 -19 -23 -19 -16 -16 -16 -15 -14 -14 -14 -13 -12
-5 -5 -6 -6 -6 -6 -6 -7 -6 -6 -6 -6 -7 -9 -10 -8 -6 -6 -5 -6 -5 -4 -6 -5 -6 -5 -4 -5 -19 -26 -26 -26 -26 -24 -23 -22 -21 -21 -22 -21 -18 -18 -20 -17 -16 -16 -15 -15 -15 -14 -14 -13 -13 -12
-6 -7 -6 -7 -6 -6 -7 -8 -8 -9 -9 -9 -9 -8 -9 -8 -8 -7 -6 -8 -7 -6 -2 -2 -2 -6 -9 -10 -20 -22 -21 -23 -23 -22 -22 -20 -20 -20 -18 -17 -17 -20 -21 -16 -16 -15 -15 -15 -14 -14 -14 -13 -13 -13
-7 -8 -7 -7 -7 -7 -7 -7 -7 -8 -9 -10 -10 -10 -9 -8 -6 -5 -7 -9 -4 -3 -2 -2 -3 -9 -15 -19 -21 -21 -20 -19 -19 -18 -19 -18 -17 -16 -16 -16 -17 -23 -19 -15 -14 -14 -14 -14 -13 -13 -13 -13 -12 -11
-6 -7 -7 -8 -8 -8 -7 -8 -7 -7 -7 -8 -9 -9 -8 -5 -6 -8 -6 -4 -4 -6 -11 -14 -14 -19 -20 -18 -18 -18 -16 -15 -15 -14 -15 -15 -16 -17 -18 -18 -19 -18 -15 -14 -14 -13 -13 -13 -13 -13 -12 -12 -11 -11
-7 -8 -7 -8 -8 -9 -8 -9 -9 -8 -8 -9 -9 -8 -7 -8 -8 -14 -15 -15 -17 -18 -18 -18 -17 -16 -14 -14 -14 -14 -14 -14 -14 -14 -14 -16 -18 -23 -22 -18 -16 -14 -14 -14 -14 -14 -14 -13 -13 -12 -11 -9 -8 -8
-8 -7 -9 -9 -9 -9 -9 -10 -9 -10 -10 -10 -8 -9 -9 -13 -14 -14 -14 -14 -14 -14 -15 -15 -14 -14 -13 -13 -13 -13 -14 -14 -16 -19 -22 -24 -26 -23 -16 -14 -14 -14 -14 -14 -14 -14 -13 -13 -11 -9 -8 -8 -8 -8
-7 -7 -9 -10 -10 -8 -8 -8 -9 -10 -11 -11 -11 -12 -12 -13 -13 -13 -13 -13 -13 -16 -17 -17 -18 -17 -17 -17 -19 -21 -22 -22 -20 -20 -19 -18 -17 -16 -14 -14 -14 -14 -14 -14 -14 -14 -13 -13 -12 -9 -9 -9 -8 -9
-7 -7 -8 -9 -11 -8 -8 -8 -9 -10 -10 -10 -10 -10 -10 -10 -13 -17 -18 -18 -17 -16 -17 -22 -22 -22 -22 -22 -21 -21 -19 -18 -17 -17 -16 -15 -15 -14 -13 -14 -14 -13 -13 -13 -13 -13 -13 -12 -8 -8 -8 -9 -9 -8
-8 -8 -10 -10 -10 -9 -9 -8 -8 -8 -8 -9 -10 -11 -11 -11 -11 -16 -18 -16 -16 -19 -22 -22 -21 -19 -19 -18 -18 -18 -17 -17 -16 -16 -15 -14 -14 -13 -13 -13 -13 -13 -13 -13 -12 -12 -10 -9 -9 -9 -8 -8 -8 -8
-9 -9 -9 -9 -9 -10 -10 -10 -11 -12 -10 -10 -10 -9 -8 -9 -10 -14 -16 -18 -20 -21 -19 -19 -18 -18 -18 -17 -16 -15 -15 -15 -14 -14 -14 -13 -13 -13 -13 -13 -13 -12 -12 -12 -10 -9 -9 -9 -9 -9 -8 -8 -8 -9
Wind_Speed
15 19 25 26 22 19 17 16 17 15 12 10 8 6 5 4 3 2 1 3 3 2 2 2 3 4 3 4 4 6 4 1 2 2 3 3 3 4 2 4 6 6 6 4 2 3 6 9 4 6 3 9 12 16
6 13 17 32 22 21 18 15 14 18 14 12 9 7 5 5 4 3 1 3 4 3 2 4 5 5 6 4 5 9 1 4 5 3 1 2 2 1 3 2 2 3 6 4 8 5 3 16 1 5 10 15 13 12
7 7 15 25 30 21 21 19 16 15 17 15 10 7 6 5 6 4 3 3 4 2 4 5 4 5 7 7 7 5 4 4 3 2 4 2 2 3 3 4 2 4 6 3 1 1 6 10 11 10 11 13 12 9
8 8 8 11 22 27 21 21 20 18 16 17 14 10 6 5 7 5 4 3 3 2 1 2 3 4 4 8 9 8 4 5 4 3 2 2 2 4 3 2 3 4 7 4 5 5 2 11 17 15 14 12 11 10
9 7 9 11 11 18 25 21 21 20 18 15 15 12 8 7 7 6 6 6 6 4 2 3 5 6 7 6 8 9 8 6 4 2 2 3 2 1 1 1 4 8 6 5 5 6 3 4 18 17 15 12 10 10
12 9 7 10 13 13 17 24 23 23 22 18 17 14 10 9 6 4 3 3 6 7 1 1 3 2 2 5 5 8 9 7 4 3 3 3 2 3 2 3 8 11 13 10 3 3 12 5 11 16 13 11 11 10
13 12 10 7 9 14 14 16 23 21 22 22 19 16 13 10 8 6 3 3 6 5 2 2 2 1 3 4 4 5 7 4 4 3 3 2 3 4 2 4 5 6 9 10 8 8 7 13 9 14 12 12 11 11
14 13 13 11 8 9 16 16 15 23 20 24 21 20 15 11 11 11 12 8 4 3 3 2 2 2 6 3 2 4 4 5 3 2 2 3 2 2 4 10 8 3 7 9 10 7 5 11 9 14 13 13 13 11
18 15 16 14 11 10 10 16 22 14 22 24 22 20 20 19 12 11 9 9 11 8 3 4 4 3 9 5 3 4 3 1 2 2 3 4 2 5 6 7 7 10 10 7 10 8 7 11 14 15 14 12 10 8
15 19 16 16 14 12 11 10 16 19 12 22 24 14 7 10 12 12 5 4 7 8 7 6 7 3 10 7 4 4 2 2 1 3 4 2 4 21 18 12 7 3 13 8 9 10 13 14 14 13 10 8 5 4
14 15 18 16 16 14 12 11 10 16 12 24 13 9 13 20 12 8 6 5 5 3 9 8 18 6 10 3 3 6 3 2 0 3 3 2 4 4 2 4 7 14 13 11 7 8 11 12 13 10 7 3 3 6
16 16 17 15 16 14 14 10 8 12 11 5 14 20 18 8 6 4 4 3 5 6 11 10 7 6 7 5 4 4 3 1 5 6 2 3 4 6 3 3 3 7 12 11 9 14 14 11 7 4 2 3 7 11
19 20 17 17 16 16 12 11 8 16 17 11 8 10 9 7 5 8 10 4 4 11 14 13 4 9 6 4 5 3 4 3 5 2 4 5 4 6 9 10 12 13 14 15 15 11 8 5 3 4 6 9 13 16
21 19 18 17 17 15 12 9 6 14 12 7 7 6 6 5 6 6 5 7 10 13 28 27 10 6 5 4 4 4 3 4 3 4 6 3 14 12 16 16 19 19 16 13 10 7 5 4 5 7 10 12 15 17
22 17 18 19 18 15 13 11 10 15 8 8 5 5 8 11 6 6 13 13 11 28 36 15 8 5 2 3 3 3 4 5 5 5 3 10 19 21 23 23 21 18 13 9 6 4 5 8 10 12 12 14 16 19
22 19 22 19 17 15 14 13 13 15 5 5 8 5 4 3 4 8 17 14 27 34 21 5 4 3 3 4 5 8 7 7 5 4 11 19 23 26 27 25 19 12 8 5 5 8 10 10 11 13 15 18 20 22
21 26 24 18 18 17 18 16 13 10 8 7 9 19 14 6 6 11 17 22 35 33 4 5 6 8 5 3 4 5 6 4 9 17 19 23 27 30 28 22 14 9 7 8 9 9 10 11 13 18 22 20 22 24
28 22 20 20 13 9 12 22 11 11 11 19 6 21 14 14 8 17 19 27 25 17 12 7 10 4 7 8 4 4 12 10 15 20 23 26 28 28 25 18 12 10 9 9 10 11 13 15 19 22 23 25 27 27
29 26 23 20 21 16 9 15 19 8 20 17 29 21 13 12 20 18 29 36 18 18 10 11 4 5 4 7 7 13 22 26 26 22 24 27 27 25 20 15 12 11 11 11 13 14 16 18 22 24 27 28 29 28
24 25 25 25 24 20 8 9 22 13 9 15 19 22 24 16 19 21 28 36 25 11 5 3 5 6 9 12 16 18 26 28 29 26 27 29 27 22 17 15 14 12 13 13 13 16 20 23 25 27 27 28 29 28
25 29 31 31 37 29 10 9 12 12 16 10 13 18 7 16 16 19 20 29 16 8 4 12 12 11 12 11 15 18 29 32 32 33 34 32 25 20 17 16 13 12 13 15 19 22 23 27 29 28 27 29 27 26
11 11 11 19 9 12 11 14 6 9 8 13 17 11 7 4 8 14 20 15 9 19 19 13 17 18 17 19 22 25 28 26 26 21 19 19 21 18 16 12 11 13 15 19 24 26 27 29 29 28 27 28 26 26
6 9 6 5 4 3 5 18 5 6 4 6 9 4 2 3 9 16 8 9 10 17 21 18 22 20 20 21 21 23 26 25 26 22 19 16 13 13 13 13 13 15 20 24 26 28 30 28 27 27 27 28 27 28
2 5 3 5 4 3 7 4 5 4 5 3 3 3 1 4 9 3 3 3 7 21 24 27 27 25 23 20 24 25 25 24 21 19 17 16 17 16 14 15 16 19 24 27 28 28 24 23 23 25 26 28 29 31
4 1 2 3 4 4 3 3 1 2 3 3 4 3 2 5 2 3 3 3 13 25 27 29 29 24 28 31 30 26 21 21 21 20 16 17 15 14 17 17 19 23 24 27 22 19 19 20 23 26 29 32 32 35
3 3 3 1 2 3 4 4 4 3 3 3 2 4 5 2 3 3 3 15 23 27 28 26 26 26 26 23 20 21 21 19 16 15 12 13 15 18 20 22 23 22 16 17 17 18 20 23 27 31 34 36 37 38
4 3 3 5 2 4 4 4 5 4 3 3 3 4 3 3 4 3 7 15 21 26 27 26 26 25 21 19 15 13 12 10 9 9 11 16 19 21 25 25 23 17 13 16 18 21 24 28 32 35 37 40 40 39
4 9 5 8 4 5 3 3 3 2 3 5 6 4 6 5 3 5 8 14 16 16 16 15 14 14 13 10 7 6 8 10 13 17 20 22 21 25 26 18 15 14 15 17 20 24 28 30 34 38 41 42 42 38
6 11 6 5 4 5 5 3 2 2 3 7 3 2 2 4 13 20 17 13 11 8 7 6 3 4 6 8 10 12 14 17 18 20 23 25 24 18 12 11 13 14 17 22 24 26 29 31 34 36 34 33 34 30
9 13 4 5 4 5 6 8 5 5 6 7 4 5 7 10 11 6 2 1 1 2 2 5 7 9 10 11 12 14 15 17 17 17 17 16 14 13 15 14 16 18 23 27 30 33 34 35 35 29 23 22 20 19
6 9 5 6 2 6 7 5 5 6 6 7 8 7 4 4 3 4 3 4 6 8 6 4 4 6 9 12 14 15 11 7 7 8 11 14 16 16 17 19 23 27 30 32 34 36 36 34 29 25 23 20 20 22
6 5 2 3 3 7 6 5 5 5 5 4 4 2 3 2 3 4 5 8 8 6 8 9 9 7 7 6 6 7 7 8 9 11 13 14 17 20 25 29 32 34 36 37 38 37 33 26 25 24 23 23 24 27
2 3 2 2 2 2 4 3 6 5 3 3 2 2 1 2 5 4 6 5 7 6 6 7 7 6 5 4 2 2 5 7 10 12 15 20 25 30 34 36 37 38 38 36 32 28 27 26 26 24 24 24 25 27
Wind_Direction
235 240 251 235 227 220 225 231 220 215 224 238 252 226 251 272 296 341 353 353 356 300 231 234 219 195 173 178 151 155 106 226 78 144 160 211 174 221 148 176 178 171 153 194 137 209 289 169 114 168 202 146 150 151
266 233 233 241 235 227 224 221 220 212 217 231 247 237 223 251 268 297 308 320 319 285 264 237 255 238 221 205 171 171 200 170 190 102 202 113 208 132 176 245 139 221 189 183 189 214 267 192 203 201 163 165 171 178
277 226 224 238 229 235 230 223 214 214 213 222 233 254 235 238 251 266 292 309 324 284 272 260 244 234 225 216 203 182 202 183 190 196 159 178 241 136 190 239 215 240 183 228 358 348 224 219 215 189 186 183 188 199
315 271 229 217 223 226 237 229 218 212 213 214 225 237 259 238 239 248 269 289 299 286 269 247 231 240 233 222 218 214 198 182 166 172 150 142 218 191 227 249 209 210 150 195 261 269 230 225 213 199 191 196 197 194
294 306 268 248 219 227 220 226 228 213 212 215 213 225 238 252 237 240 255 260 250 231 252 280 260 267 254 234 217 212 203 184 169 149 109 226 224 150 351 9 254 194 193 173 226 223 210 259 218 200 199 198 194 188
285 290 296 266 255 222 222 222 225 225 215 216 214 209 226 231 234 224 258 247 223 212 218 314 261 266 250 210 199 202 202 202 195 187 204 235 213 181 161 238 255 239 236 239 271 274 218 279 184 196 201 195 187 181
281 281 286 282 266 250 230 223 223 223 225 215 213 206 215 230 224 200 198 153 150 156 205 302 321 242 180 162 177 178 183 192 198 206 223 225 211 210 178 234 247 285 237 228 219 187 154 174 183 189 195 183 178 179
259 276 274 278 277 263 251 234 227 219 222 214 208 203 211 222 225 230 224 207 205 229 219 119 273 272 182 171 150 169 176 181 203 255 230 216 200 199 252 236 239 245 193 189 190 215 244 198 179 177 178 179 178 179
247 255 271 270 274 276 259 246 233 227 210 213 204 199 214 197 201 226 221 222 223 219 196 163 164 224 172 160 152 157 176 71 214 215 235 165 217 228 238 225 228 219 203 226 215 229 208 190 173 172 174 172 180 187
257 242 251 269 269 271 267 252 250 237 218 207 189 183 180 184 178 189 176 208 203 208 213 214 189 195 164 162 160 124 164 202 198 244 157 212 257 262 257 255 236 230 220 219 194 166 170 166 168 168 170 174 187 232
273 261 243 255 266 264 266 261 239 240 225 188 178 164 158 159 152 164 191 194 169 216 209 222 193 139 173 134 165 195 174 172 211 263 170 245 264 251 274 260 250 224 219 217 223 210 182 173 163 166 174 195 274 298
279 276 244 238 256 265 260 262 239 200 197 243 184 148 146 179 179 164 183 159 204 220 184 155 161 131 136 145 118 173 160 174 238 158 218 250 252 219 187 168 154 172 181 173 166 157 157 159 161 172 221 282 293 297
273 276 247 231 244 258 261 253 242 186 214 203 192 159 161 186 185 191 180 191 204 178 173 160 136 144 135 155 106 129 173 218 135 214 236 230 209 186 178 161 146 145 152 151 148 152 155 163 191 251 279 294 301 306
270 265 231 227 239 252 255 256 233 193 191 214 197 194 201 189 229 194 179 170 194 169 156 147 125 139 141 129 145 123 188 132 224 231 234 241 203 178 167 162 155 150 152 151 154 163 187 230 265 285 302 311 309 311
272 246 233 231 240 245 248 241 204 191 221 221 218 227 205 219 207 201 185 151 154 159 147 121 97 121 136 125 170 111 162 227 219 230 223 199 174 171 166 164 162 159 162 168 183 230 275 292 304 310 311 311 312 311
254 246 234 237 242 234 226 227 210 211 243 226 227 258 237 161 176 175 177 160 161 152 144 129 131 122 184 151 159 203 158 216 231 210 198 174 173 174 171 170 170 176 187 215 257 277 288 301 304 306 311 313 313 313
239 245 230 233 241 240 223 217 206 209 213 228 231 234 213 287 222 190 186 182 167 155 170 148 147 190 116 154 209 191 207 216 197 184 183 182 176 173 174 176 186 203 233 258 272 282 296 302 303 305 306 311 311 308
238 232 234 244 241 226 226 206 210 208 216 228 222 233 222 226 217 193 194 180 165 193 170 192 135 167 185 183 219 220 207 187 178 178 178 178 176 176 181 190 213 238 252 265 278 285 291 296 297 297 300 306 306 304
235 238 248 247 236 223 207 201 205 221 220 221 227 228 226 225 222 228 208 190 189 192 166 160 155 191 205 204 190 186 181 178 172 175 177 176 179 185 195 216 231 239 249 260 269 280 286 289 292 295 300 303 301 299
249 245 239 231 230 200 217 219 195 222 208 217 216 217 219 229 218 211 208 189 192 181 193 217 225 198 193 207 202 205 192 181 171 166 175 182 187 197 214 225 232 239 251 264 278 286 290 295 298 303 303 302 299 302
254 246 240 233 219 214 209 204 209 220 202 193 176 169 188 169 167 173 183 185 191 204 210 228 227 210 206 196 199 193 178 175 178 176 180 187 197 212 217 226 233 247 266 283 291 297 302 304 304 302 299 297 297 298
231 218 192 177 164 164 184 195 220 166 157 148 147 151 154 182 156 176 177 193 221 210 211 202 199 192 187 178 170 175 178 185 184 178 180 191 198 211 224 228 239 263 280 290 295 302 305 303 304 300 297 298 296 297
226 213 170 138 128 136 151 147 174 180 146 149 127 103 139 153 181 157 199 205 224 206 201 194 180 170 165 171 179 184 189 189 192 198 203 208 214 227 234 239 261 279 289 297 305 306 305 306 301 300 300 298 296 295
176 176 181 129 120 136 143 148 171 146 115 117 102 92 229 168 160 205 248 223 206 176 172 172 172 173 180 189 199 193 194 197 204 211 216 224 235 244 245 261 276 286 295 302 304 306 305 306 307 304 302 300 296 294
135 55 140 109 141 133 125 148 185 87 119 129 125 141 212 177 180 209 205 214 171 171 173 174 172 182 196 203 208 210 212 217 220 227 236 244 245 245 255 272 281 291 300 301 304 305 312 316 314 312 308 304 301 299
88 22 37 99 116 128 155 149 152 127 122 94 86 137 146 168 209 224 227 178 174 180 184 184 183 203 212 212 214 221 226 228 228 227 224 233 251 262 272 278 286 296 294 292 301 307 310 309 306 306 304 304 303 303
50 4 25 35 85 127 120 80 90 98 98 130 161 176 163 146 200 222 180 170 168 177 191 200 204 206 212 215 212 191 188 205 232 258 267 268 267 271 275 282 289 289 276 279 290 296 299 302 303 303 303 303 303 303
36 20 29 345 50 39 105 93 104 103 145 158 147 180 170 167 174 142 142 138 134 143 158 163 162 154 148 150 178 215 252 267 273 276 276 275 272 275 283 282 273 263 269 282 292 297 301 304 305 304 302 301 301 302
24 354 347 14 21 50 47 46 90 97 123 181 182 167 176 93 116 116 111 110 118 127 138 155 172 237 256 260 264 267 269 271 274 271 268 271 281 288 282 269 265 274 288 296 302 303 306 307 308 307 304 302 302 304
5 3 27 15 40 21 15 22 33 66 60 55 60 67 80 97 125 126 79 43 188 166 205 240 237 246 258 262 259 254 257 260 265 271 280 287 293 282 276 272 279 292 300 305 308 311 313 312 313 310 303 301 305 306
354 356 25 26 30 16 4 23 40 40 45 49 47 53 44 19 349 340 307 233 219 236 250 242 238 247 248 248 252 258 271 279 279 281 283 285 284 279 278 288 298 303 305 306 308 310 310 311 311 308 306 305 309 312
16 30 28 11 342 355 3 25 25 17 20 21 10 13 8 349 304 260 232 214 209 198 175 202 221 219 234 255 277 281 278 282 288 294 296 294 292 293 295 298 301 303 304 305 306 305 307 305 301 299 300 305 309 310
323 319 332 336 0 34 14 13 27 1 343 359 359 345 235 239 249 237 221 206 181 179 200 223 230 226 223 219 234 301 321 317 312 304 300 298 298 299 300 302 303 303 303 302 303 304 300 297 295 294 297 300 305 307
Height
1458 1459 1462 1466 1469 1473 1476 1478 1479 1483 1485 1487 1486 1488 1489 1489 1489 1489 1489 1489 1489 1488 1488 1488 1488 1488 1489 1489 1493 1494 1497 1497 1499 1503 1505 1504 1506 1504 1504 1503 1508 1508 1518 1520 1522 1515 1504 1479 1484 1488 1482 1480 1482 1484
1454 1455 1458 1462 1465 1468 1471 1474 1476 1478 1482 1484 1484 1484 1486 1488 1488 1488 1488 1488 1488 1489 1488 1487 1487 1487 1488 1488 1489 1491 1492 1491 1492 1497 1501 1502 1500 1504 1502 1498 1498 1502 1494 1497 1498 1490 1477 1477 1477 1477 1478 1479 1482 1484
1452 1453 1454 1456 1460 1463 1466 1469 1472 1475 1478 1481 1482 1482 1483 1485 1486 1487 1486 1486 1487 1487 1487 1486 1485 1486 1485 1486 1487 1489 1490 1490 1491 1491 1493 1496 1497 1496 1497 1497 1491 1487 1485 1489 1485 1477 1475 1475 1476 1477 1478 1479 1481 1482
1450 1450 1451 1452 1455 1459 1462 1465 1468 1471 1474 1476 1479 1480 1481 1483 1483 1484 1485 1485 1485 1486 1486 1486 1484 1484 1484 1484 1485 1487 1487 1488 1490 1491 1491 1494 1495 1492 1493 1491 1490 1482 1483 1482 1481 1474 1473 1472 1473 1475 1476 1478 1480 1481
1449 1448 1448 1450 1452 1454 1456 1460 1463 1466 1470 1472 1475 1477 1479 1480 1481 1482 1482 1482 1483 1487 1485 1484 1483 1483 1483 1483 1484 1485 1487 1488 1489 1490 1491 1493 1490 1492 1492 1491 1487 1475 1473 1477 1474 1467 1468 1468 1469 1473 1475 1477 1480 1482
1446 1447 1447 1447 1449 1450 1452 1454 1458 1462 1465 1468 1470 1473 1476 1478 1479 1480 1480 1480 1480 1481 1483 1485 1484 1481 1482 1482 1483 1484 1485 1487 1488 1488 1489 1487 1488 1489 1493 1491 1467 1465 1465 1466 1466 1466 1467 1467 1469 1472 1475 1477 1479 1481
1445 1444 1446 1445 1446 1447 1448 1450 1453 1456 1460 1463 1466 1469 1473 1475 1476 1478 1480 1480 1479 1480 1482 1482 1481 1481 1481 1482 1483 1484 1485 1486 1488 1488 1487 1486 1486 1486 1488 1484 1462 1462 1462 1463 1464 1465 1466 1466 1467 1470 1473 1476 1478 1481
1440 1441 1443 1443 1443 1444 1445 1446 1448 1450 1455 1458 1462 1465 1469 1471 1475 1476 1476 1478 1479 1479 1480 1482 1482 1482 1481 1482 1483 1484 1484 1485 1486 1486 1487 1485 1485 1483 1479 1459 1460 1461 1462 1463 1464 1464 1465 1466 1467 1469 1472 1475 1478 1481
1436 1437 1441 1440 1440 1440 1441 1442 1443 1446 1450 1454 1458 1462 1464 1466 1468 1471 1473 1474 1477 1481 1477 1478 1480 1479 1479 1480 1482 1484 1485 1487 1486 1484 1484 1485 1482 1477 1456 1456 1457 1459 1460 1461 1462 1464 1465 1466 1468 1471 1473 1475 1478 1480
1432 1435 1436 1436 1436 1438 1439 1439 1440 1442 1446 1449 1454 1457 1458 1461 1464 1469 1472 1473 1473 1473 1473 1471 1470 1474 1476 1479 1481 1484 1485 1486 1491 1483 1482 1481 1471 1455 1454 1455 1456 1457 1460 1461 1462 1464 1465 1467 1469 1472 1474 1476 1478 1479
1426 1427 1429 1432 1433 1435 1436 1436 1437 1439 1443 1443 1445 1449 1454 1459 1463 1465 1467 1469 1468 1469 1465 1460 1461 1465 1471 1475 1477 1480 1483 1485 1491 1484 1483 1477 1468 1452 1451 1452 1453 1454 1457 1459 1461 1463 1465 1468 1470 1472 1474 1475 1476 1476
1421 1422 1423 1427 1429 1431 1433 1435 1435 1435 1440 1439 1440 1445 1452 1455 1457 1458 1459 1463 1462 1457 1452 1454 1459 1461 1467 1470 1474 1480 1481 1482 1479 1479 1480 1471 1453 1449 1449 1450 1451 1453 1456 1459 1462 1463 1465 1468 1470 1472 1473 1474 1474 1473
1416 1417 1419 1422 1425 1427 1430 1431 1433 1434 1436 1438 1438 1438 1440 1447 1447 1443 1445 1447 1449 1440 1442 1446 1453 1458 1465 1468 1471 1475 1478 1479 1479 1479 1470 1454 1445 1447 1449 1450 1452 1454 1458 1461 1463 1466 1467 1468 1468 1469 1470 1470 1469 1468
1411 1411 1414 1418 1422 1424 1425 1426 1428 1431 1435 1434 1432 1431 1428 1432 1425 1416 1417 1419 1422 1423 1430 1440 1448 1453 1458 1463 1467 1475 1474 1476 1475 1472 1461 1442 1440 1443 1447 1450 1453 1455 1457 1459 1463 1465 1466 1467 1468 1467 1466 1465 1464 1462
1404 1406 1408 1412 1415 1419 1421 1424 1426 1428 1429 1428 1425 1416 1415 1408 1406 1407 1410 1414 1419 1421 1427 1438 1446 1450 1456 1461 1462 1468 1471 1466 1462 1452 1439 1432 1435 1439 1443 1448 1451 1454 1457 1459 1459 1461 1463 1462 1463 1464 1462 1460 1458 1457
1399 1401 1402 1407 1411 1414 1417 1421 1423 1425 1422 1420 1416 1409 1405 1405 1405 1408 1409 1412 1414 1421 1429 1434 1442 1448 1450 1452 1455 1454 1462 1458 1437 1429 1426 1430 1433 1437 1440 1444 1449 1452 1454 1455 1456 1458 1458 1458 1458 1457 1457 1455 1453 1450
1393 1392 1395 1400 1403 1407 1411 1415 1417 1416 1417 1410 1402 1399 1400 1401 1399 1403 1407 1409 1411 1415 1419 1425 1435 1433 1440 1447 1447 1441 1436 1420 1416 1419 1423 1426 1430 1434 1440 1445 1448 1449 1450 1451 1452 1453 1453 1453 1452 1451 1449 1449 1446 1444
1383 1383 1389 1394 1398 1401 1403 1406 1407 1405 1400 1394 1394 1392 1395 1397 1397 1401 1403 1406 1411 1411 1411 1413 1414 1424 1425 1429 1426 1411 1410 1412 1414 1417 1419 1424 1429 1434 1438 1442 1445 1446 1446 1446 1447 1447 1448 1448 1446 1444 1443 1442 1439 1435
1373 1378 1383 1387 1391 1395 1395 1395 1397 1389 1383 1383 1384 1387 1388 1388 1392 1396 1398 1400 1401 1403 1403 1404 1408 1410 1405 1400 1398 1400 1404 1406 1409 1415 1420 1424 1429 1433 1437 1440 1442 1442 1442 1443 1442 1442 1442 1441 1439 1437 1436 1434 1429 1427
1365 1369 1373 1376 1380 1384 1384 1381 1381 1382 1374 1371 1375 1378 1381 1383 1386 1391 1395 1396 1399 1401 1401 1399 1392 1387 1387 1388 1390 1394 1399 1403 1408 1414 1420 1424 1428 1430 1433 1436 1438 1439 1438 1437 1436 1436 1435 1434 1432 1430 1428 1425 1420 1417
1355 1356 1361 1365 1367 1369 1370 1369 1367 1362 1363 1368 1367 1371 1376 1379 1380 1383 1389 1392 1395 1390 1389 1385 1384 1384 1386 1387 1389 1392 1397 1401 1404 1408 1413 1419 1424 1426 1429 1431 1433 1432 1431 1431 1430 1429 1428 1425 1423 1422 1419 1415 1412 1409
1343 1345 1347 1349 1350 1354 1356 1357 1356 1356 1358 1358 1365 1367 1370 1373 1373 1377 1380 1385 1379 1376 1378 1377 1378 1381 1383 1385 1388 1393 1397 1401 1407 1410 1415 1418 1420 1423 1424 1426 1426 1426 1425 1424 1422 1421 1419 1417 1414 1411 1409 1405 1403 1400
1336 1337 1337 1338 1341 1344 1347 1348 1352 1352 1353 1356 1359 1364 1367 1368 1369 1373 1373 1368 1369 1369 1372 1374 1375 1379 1383 1387 1391 1393 1396 1400 1404 1408 1412 1414 1416 1418 1418 1420 1421 1420 1418 1416 1415 1412 1410 1408 1404 1402 1399 1397 1394 1391
1331 1331 1331 1331 1336 1341 1343 1344 1347 1348 1349 1353 1357 1364 1367 1365 1367 1368 1364 1361 1361 1362 1365 1367 1372 1377 1383 1387 1389 1390 1393 1397 1401 1405 1408 1409 1410 1411 1413 1414 1415 1413 1410 1408 1406 1403 1400 1398 1396 1393 1391 1388 1386 1382
1329 1331 1330 1330 1332 1335 1339 1343 1344 1345 1348 1353 1358 1361 1363 1364 1365 1364 1359 1358 1357 1358 1363 1366 1370 1376 1378 1381 1384 1388 1391 1393 1396 1399 1402 1403 1404 1405 1406 1407 1406 1405 1402 1399 1397 1395 1393 1391 1389 1386 1383 1380 1376 1373
1326 1329 1329 1328 1329 1331 1334 1339 1338 1342 1346 1352 1356 1357 1356 1358 1358 1353 1352 1349 1351 1355 1359 1363 1368 1370 1373 1378 1382 1384 1387 1389 1391 1393 1396 1398 1398 1398 1397 1397 1397 1396 1395 1392 1389 1387 1385 1383 1381 1378 1374 1370 1367 1364
1328 1329 1328 1328 1328 1329 1332 1334 1335 1337 1342 1348 1352 1355 1354 1352 1352 1350 1349 1349 1351 1353 1356 1360 1363 1366 1370 1376 1380 1383 1384 1386 1388 1390 1391 1391 1391 1390 1389 1388 1388 1388 1387 1385 1382 1380 1377 1375 1372 1368 1363 1359 1356 1353
1331 1330 1330 1331 1329 1328 1330 1333 1337 1340 1342 1344 1348 1348 1346 1345 1347 1346 1347 1349 1349 1351 1354 1358 1362 1367 1372 1376 1378 1380 1382 1382 1383 1383 1383 1383 1383 1381 1381 1381 1381 1381 1379 1378 1376 1373 1370 1367 1362 1358 1353 1348 1344 1342
1335 1334 1332 1332 1330 1331 1335 1337 1339 1341 1342 1343 1343 1343 1343 1341 1344 1346 1348 1350 1352 1354 1356 1358 1362 1365 1368 1371 1373 1374 1375 1376 1376 1376 1374 1373 1374 1375 1374 1374 1374 1373 1372 1370 1368 1365 1362 1358 1353 1347 1342 1339 1335 1333
1341 1339 1337 1337 1338 1341 1342 1341 1341 1341 1341 1340 1340 1340 1343 1346 1347 1348 1349 1350 1352 1353 1355 1357 1359 1361 1362 1365 1368 1369 1369 1369 1369 1369 1368 1368 1369 1370 1369 1368 1367 1366 1363 1361 1357 1354 1351 1346 1342 1338 1335 1333 1330 1328
1346 1344 1342 1343 1345 1345 1345 1344 1343 1342 1342 1342 1343 1344 1346 1346 1346 1347 1348 1349 1351 1352 1354 1355 1356 1357 1359 1361 1362 1363 1364 1365 1365 1365 1365 1365 1364 1363 1362 1361 1359 1357 1354 1351 1347 1343 1339 1335 1332 1329 1327 1326 1324 1322
1351 1351 1351 1351 1349 1348 1347 1346 1346 1345 1345 1345 1346 1347 1348 1349 1349 1348 1347 1347 1349 1351 1352 1354 1355 1356 1357 1358 1359 1361 1362 1362 1362 1361 1360 1359 1358 1356 1354 1352 1350 1347 1343 1339 1335 1331 1328 1327 1325 1323 1321 1319 1317 1315
1354 1354 1353 1353 1352 1352 1352 1351 1351 1350 1350 1349 1349 1350 1350 1351 1349 1347 1347 1348 1349 1350 1351 1352 1353 1354 1356 1357 1358 1358 1358 1358 1357 1356 1355 1353 1350 1348 1345 1342 1338 1334 1330 1326 1323 1322 1320 1319 1318 1316 1315 1313 1311 1309